South Bend, IN

9:02 PM EDT on March 27, 2017 (GMT -0400)
South Bend Regional

Weather History for KSBN - May, 2013

Change the Weather History Date:

Saturday, May 11, 2013

  Actual Average Record
Temperature  
Mean Temperature 46 °F 58 °F  
Max Temperature 56 °F 69 °F 88 °F (1896)
Min Temperature 36 °F 47 °F 26 °F (1907)
Degree Days  
Heating Degree Days 19 8  
Month to date heating degree days 45 106  
Since 1 July heating degree days 6000 6137  
Cooling Degree Days 0 1  
Month to date cooling degree days 9 9  
Year to date cooling degree days 14 19  
Moisture  
Dew Point 40 °F    
Average Humidity 78    
Maximum Humidity 100    
Minimum Humidity 56    
Precipitation  
Precipitation T in 0.12 in 1.50 in (1966)
Month to date precipitation 0.18 1.29  
Year to date precipitation 14.23 11.18  
Snow  
Snow 0.00 in 0.00 in 0.60 in (1966)
Month to date snowfall 0.0 0.0  
Since 1 July snowfall 59.9 66.6  
Snow Depth 0.00 in    
Sea Level Pressure  
Sea Level Pressure 29.93 in    
Wind  
Wind Speed 10 mph (WNW)    
Max Wind Speed 35 mph    
Max Gust Speed 43 mph    
Visibility 7 miles    
Events      
T = Trace of Precipitation, MM = Missing Value Source: NWS Daily Summary

Daily Weather History Graph

Daily Weather History Graph

Search for Another Location

Airport or City:

Trip Planner

Search our weather history database for the weather conditions in past years. The results will help you decide how hot, cold, wet, or windy it might be!

Date:

Astronomy

May. 11, 2013 Rise Set
Actual Time 6:29 AM EDT 8:54 PM EDT
Civil Twilight 5:58 AM EDT 9:25 PM EDT
Nautical Twilight 5:19 AM EDT 10:04 PM EDT
Astronomical Twilight 4:36 AM EDT 10:48 PM EDT
Moon 7:36 AM EDT (5/11) 10:34 PM EDT (5/11)
Length of Visible Light 15h 27m
Length of Day
14h 24m
Waxing Crescent, 3% of the Moon is Illuminated
May 11
Waxing Crescent
May 18
First Quarter
May 25
Full
May 31
Last Quarter
Jun 8
New

Hourly Weather History & Observations

Time (EDT) Temp. Windchill Dew Point Humidity Pressure Visibility Wind Dir Wind Speed Gust Speed Precip Events Conditions
12:13 AM 44.6 °F 40.2 °F 42.8 °F 93% 29.93 in 2.5 mi NW 8.1 mph - N/A   Overcast
12:54 AM 44.1 °F 39.5 °F 42.1 °F 93% 29.94 in 2.5 mi NW 8.1 mph - N/A   Overcast
1:02 AM 44.6 °F 40.7 °F 42.8 °F 93% 29.93 in 4.0 mi NW 6.9 mph - N/A   Overcast
1:54 AM 44.1 °F 40.1 °F 42.1 °F 93% 29.94 in 7.0 mi WNW 6.9 mph - N/A   Overcast
2:54 AM 44.1 °F 40.1 °F 42.1 °F 93% 29.95 in 8.0 mi WNW 6.9 mph - N/A   Overcast
3:54 AM 43.0 °F 39.5 °F 41.0 °F 93% 29.95 in 7.0 mi WNW 5.8 mph - N/A   Overcast
4:54 AM 43.0 °F 38.8 °F 41.0 °F 93% 29.95 in 6.0 mi West 6.9 mph - N/A   Overcast
5:54 AM 43.0 °F 38.8 °F 41.0 °F 93% 29.95 in 5.0 mi WNW 6.9 mph - N/A   Overcast
6:51 AM 42.8 °F 38.0 °F 42.8 °F 100% 29.93 in 1.5 mi West 8.1 mph - N/A   Overcast
6:54 AM 43.0 °F 38.2 °F 42.1 °F 97% 29.94 in 1.5 mi West 8.1 mph - N/A   Overcast
7:54 AM 44.1 °F 40.1 °F 42.1 °F 93% 29.94 in 4.0 mi West 6.9 mph - N/A   Overcast
8:12 AM 44.6 °F 41.4 °F 42.8 °F 93% 29.92 in 4.0 mi West 5.8 mph - N/A   Overcast
8:44 AM 44.6 °F 40.2 °F 42.8 °F 93% 29.91 in 5.0 mi WNW 8.1 mph - N/A   Overcast
8:54 AM 44.1 °F 39.5 °F 42.1 °F 93% 29.92 in 5.0 mi West 8.1 mph - N/A   Overcast
9:54 AM 44.6 °F 40.7 °F 42.8 °F 93% 29.91 in 6.0 mi WSW 6.9 mph - N/A   Overcast
10:54 AM 46.0 °F 44.8 °F 43.0 °F 89% 29.91 in 4.0 mi SSW 3.5 mph - N/A   Overcast
11:54 AM 50.0 °F - 44.1 °F 80% 29.91 in 6.0 mi SW 10.4 mph - N/A   Haze
12:27 PM 51.8 °F - 44.6 °F 76% 29.87 in 8.0 mi SSW 11.5 mph - N/A   Overcast
12:54 PM 54.0 °F - 45.0 °F 72% 29.86 in 10.0 mi SSW 12.7 mph - N/A   Mostly Cloudy
1:54 PM 54.0 °F - 46.0 °F 75% 29.85 in 7.0 mi SW 15.0 mph - 0.00 in   Mostly Cloudy
2:54 PM 54.0 °F - 48.0 °F 80% 29.85 in 8.0 mi WSW 11.5 mph - 0.00 in   Overcast
3:34 PM 46.4 °F 37.4 °F 39.2 °F 76% 29.89 in 10.0 mi NNW 28.8 mph 39.1 mph 0.00 in   Overcast
3:54 PM 45.0 °F 35.2 °F 37.0 °F 74% 29.91 in 10.0 mi NNW 29.9 mph 42.6 mph 0.00 in   Overcast
4:19 PM 46.4 °F 37.9 °F 35.6 °F 66% 29.90 in 10.0 mi North 25.3 mph 33.4 mph N/A   Overcast
4:54 PM 46.9 °F - 36.0 °F 66% 29.91 in 10.0 mi North 21.9 mph 28.8 mph N/A   Overcast
5:54 PM 50.0 °F - 36.0 °F 59% 29.94 in 10.0 mi North 19.6 mph 31.1 mph N/A   Partly Cloudy
6:54 PM 48.9 °F - 34.0 °F 56% 29.95 in 10.0 mi North 16.1 mph - N/A   Mostly Cloudy
7:54 PM 46.9 °F - 32.0 °F 56% 29.96 in 10.0 mi NNW 12.7 mph - N/A   Overcast
8:54 PM 46.0 °F 41.9 °F 32.0 °F 58% 29.99 in 10.0 mi NNW 8.1 mph - N/A   Mostly Cloudy
9:54 PM 41.0 °F 35.8 °F 34.0 °F 76% 30.01 in 10.0 mi NNW 8.1 mph - N/A   Clear
10:54 PM 37.9 °F 35.5 °F 32.0 °F 79% 30.01 in 10.0 mi WNW 3.5 mph - N/A   Clear
11:54 PM 36.0 °F 30.3 °F 32.0 °F 86% 30.02 in 10.0 mi West 6.9 mph - N/A   Clear